Jackson, MI

3:11 AM EST on December 08, 2016 (GMT -0500)
Jackson County-Reynolds

Weather History for KJXN - October, 2012

Change the Weather History Date:

Wednesday, October 24, 2012

  Actual Average Record
Temperature  
Mean Temperature 68 °F 48 °F  
Max Temperature 78 °F 58 °F 81 °F (1963)
Min Temperature 57 °F 38 °F 22 °F (1982)
Degree Days  
Heating Degree Days 0 17  
Month to date heating degree days 321 332  
Since 1 July heating degree days 506 520  
Cooling Degree Days 3 0  
Month to date cooling degree days 3 3  
Year to date cooling degree days 871 589  
Growing Degree Days 17 (Base 50)    
Moisture  
Dew Point 58 °F    
Average Humidity 72    
Maximum Humidity 93    
Minimum Humidity 50    
Precipitation  
Precipitation T in 0.07 in 0.55 in (1991)
Month to date precipitation 2.82 2.08  
Year to date precipitation 22.52 26.48  
Sea Level Pressure  
Sea Level Pressure 29.99 in    
Wind  
Wind Speed 5 mph (South)    
Max Wind Speed 15 mph    
Max Gust Speed 20 mph    
Visibility 9 miles    
Events Rain    
T = Trace of Precipitation, MM = Missing Value Source: NWS Daily Summary

Daily Weather History Graph

Daily Weather History Graph

Search for Another Location

Airport or City:

Trip Planner

Search our weather history database for the weather conditions in past years. The results will help you decide how hot, cold, wet, or windy it might be!

Date:

Astronomy

Oct. 24, 2012 Rise Set
Actual Time 8:01 AM EDT 6:41 PM EDT
Civil Twilight 7:33 AM EDT 7:10 PM EDT
Nautical Twilight 7:00 AM EDT 7:42 PM EDT
Astronomical Twilight 6:27 AM EDT 8:15 PM EDT
Moon 4:01 PM EDT (10/24) 2:50 AM EDT (10/24)
Length of Visible Light 11h 37m
Length of Day
10h 39m
Waxing Gibbous, 76% of the Moon is Illuminated
Oct 24
Waxing Gibbous
Oct 29
Full
Nov 6
Last Quarter
Nov 13
New
Nov 20
First Quarter

Hourly Weather History & Observations

Time (EDT) Temp. Dew Point Humidity Pressure Visibility Wind Dir Wind Speed Gust Speed Precip Events Conditions
12:56 AM 61.0 °F 57.9 °F 90% 30.00 in 10.0 mi Calm Calm - 0.01 in   Overcast
1:56 AM 62.1 °F 59.0 °F 90% 30.00 in 10.0 mi South 3.5 mph - N/A   Overcast
2:56 AM 62.1 °F 57.9 °F 86% 30.00 in 10.0 mi South 4.6 mph - N/A   Overcast
3:56 AM 62.1 °F 57.9 °F 86% 29.99 in 9.0 mi South 4.6 mph - 0.00 in Rain Light Rain
4:56 AM 61.0 °F 57.9 °F 90% 29.99 in 9.0 mi South 5.8 mph - 0.00 in   Overcast
5:56 AM 59.0 °F 57.0 °F 93% 30.00 in 8.0 mi South 3.5 mph - N/A   Scattered Clouds
6:56 AM 59.0 °F 55.9 °F 90% 30.01 in 6.0 mi Calm Calm - N/A   Overcast
7:56 AM 57.9 °F 55.9 °F 93% 30.01 in 5.0 mi SE 5.8 mph - N/A   Scattered Clouds
8:56 AM 59.0 °F 57.0 °F 93% 30.01 in 5.0 mi SSE 5.8 mph - N/A   Clear
9:56 AM 63.0 °F 57.9 °F 84% 30.02 in 9.0 mi South 4.6 mph - N/A   Partly Cloudy
10:56 AM 66.9 °F 57.9 °F 73% 30.02 in 10.0 mi WSW 5.8 mph - N/A   Clear
11:56 AM 71.1 °F 57.9 °F 63% 30.01 in 10.0 mi Variable 3.5 mph - N/A   Clear
12:56 PM 73.0 °F 59.0 °F 61% 29.99 in 10.0 mi South 5.8 mph - N/A   Clear
1:56 PM 75.9 °F 59.0 °F 56% 29.97 in 10.0 mi South 10.4 mph - N/A   Clear
2:56 PM 77.0 °F 59.0 °F 54% 29.95 in 10.0 mi South 10.4 mph - N/A   Clear
3:56 PM 77.0 °F 57.9 °F 52% 29.95 in 10.0 mi South 13.8 mph 18.4 mph N/A   Clear
4:56 PM 75.0 °F 57.9 °F 55% 29.95 in 10.0 mi South 12.7 mph - N/A   Clear
5:56 PM 75.0 °F 57.9 °F 55% 29.95 in 10.0 mi South 11.5 mph - N/A   Clear
6:56 PM 71.1 °F 57.9 °F 63% 29.96 in 10.0 mi South 5.8 mph - N/A   Clear
7:56 PM 69.1 °F 57.9 °F 68% 29.97 in 10.0 mi South 6.9 mph - N/A   Clear
8:56 PM 66.9 °F 57.9 °F 73% 29.98 in 10.0 mi South 4.6 mph - N/A   Clear
9:56 PM 66.9 °F 57.9 °F 73% 29.98 in 10.0 mi South 5.8 mph - N/A   Clear
10:56 PM 66.9 °F 57.0 °F 70% 29.97 in 10.0 mi South 5.8 mph - N/A   Clear
11:56 PM 66.0 °F 55.0 °F 68% 29.97 in 10.0 mi South 6.9 mph - N/A   Clear